St. Cloud, MN

9:48 PM CDT on October 17, 2017 (GMT -0500)
Saint Cloud Regional

Weather History for KSTC - August, 2014

Change the Weather History Date:

Sunday, August 31, 2014

  Actual Average Record
Temperature  
Mean Temperature 73 °F 65 °F  
Max Temperature 83 °F 76 °F 95 °F (1907)
Min Temperature 63 °F 53 °F 33 °F (1974)
Degree Days  
Heating Degree Days 0 3  
Month to date heating degree days 2 42  
Since 1 June heating degree days 35 136  
Since 1 July heating degree days 9 58  
Cooling Degree Days 8 2  
Month to date cooling degree days 207 127  
Year to date cooling degree days 559 429  
Since 1 June cooling degree days 515 404  
Growing Degree Days 22 (Base 50)    
Moisture  
Dew Point 64 °F    
Average Humidity 78    
Maximum Humidity 93    
Minimum Humidity 62    
Precipitation  
Precipitation 0.79 in 0.13 in 1.21 in (1937)
Month to date precipitation 5.59 3.79  
Year to date precipitation 29.37 19.58  
Snow  
Snow 0.00 in 0.00 in 0.00 in ()
Month to date snowfall 0.0 0.0  
Since 1 June snowfall 0.0 0.0  
Since 1 July snowfall 0.0 0.0  
Snow Depth 0.00 in    
Sea Level Pressure  
Sea Level Pressure 29.71 in    
Wind  
Wind Speed 10 mph (SSE)    
Max Wind Speed 28 mph    
Max Gust Speed 35 mph    
Visibility 8 miles    
Events Rain , Thunderstorm    
T = Trace of Precipitation, MM = Missing Value Source: NWS Daily Summary

Daily Weather History Graph

Daily Weather History Graph

Search for Another Location

Airport or City:

Trip Planner

Search our weather history database for the weather conditions in past years. The results will help you decide how hot, cold, wet, or windy it might be!

Date:

Astronomy

Aug. 31, 2014 Rise Set
Actual Time 6:36 AM CDT 7:55 PM CDT
Civil Twilight 6:05 AM CDT 8:26 PM CDT
Nautical Twilight 5:28 AM CDT 9:03 PM CDT
Astronomical Twilight 4:49 AM CDT 9:42 PM CDT
Moon 12:41 PM CDT (8/31) 10:52 PM CDT (8/31)
Length of Visible Light 14h 20m
Length of Day
13h 19m
Waxing Crescent, 32% of the Moon is Illuminated
Aug 31
Waxing Crescent
Sep 2
First Quarter
Sep 8
Full
Sep 15
Last Quarter
Sep 24
New

Hourly Weather History & Observations

Time (CDT) Temp. Heat Index Dew Point Humidity Pressure Visibility Wind Dir Wind Speed Gust Speed Precip Events Conditions
12:53 AM 66.9 °F - 64.0 °F 90% 29.89 in 9.0 mi SSE 5.8 mph - N/A   Overcast
1:37 AM 66.9 °F - 62.1 °F 84% 29.88 in 10.0 mi SE 6.9 mph - N/A   Mostly Cloudy
1:53 AM 66.9 °F - 62.1 °F 84% 29.88 in 10.0 mi SE 8.1 mph - N/A   Partly Cloudy
2:53 AM 64.0 °F - 61.0 °F 90% 29.87 in 10.0 mi ESE 6.9 mph - N/A   Partly Cloudy
3:53 AM 63.0 °F - 60.1 °F 90% 29.84 in 10.0 mi ESE 8.1 mph - N/A   Clear
4:53 AM 63.0 °F - 60.1 °F 90% 29.82 in 10.0 mi SE 9.2 mph - N/A   Scattered Clouds
5:16 AM 63.0 °F - 60.1 °F 90% 29.81 in 10.0 mi ESE 8.1 mph - N/A   Scattered Clouds
5:28 AM 63.0 °F - 60.1 °F 90% 29.81 in 9.0 mi ESE 10.4 mph - N/A   Mostly Cloudy
5:53 AM 63.0 °F - 60.1 °F 90% 29.82 in 9.0 mi ESE 9.2 mph - N/A   Overcast
6:53 AM 64.0 °F - 61.0 °F 90% 29.81 in 7.0 mi SE 9.2 mph - N/A   Overcast
7:53 AM 64.9 °F - 61.0 °F 87% 29.78 in 8.0 mi SE 11.5 mph - N/A   Overcast
8:53 AM 66.0 °F - 62.1 °F 87% 29.75 in 8.0 mi SE 13.8 mph 24.2 mph N/A   Overcast
9:33 AM 69.1 °F - 63.0 °F 81% 29.72 in 10.0 mi SE 19.6 mph 26.5 mph N/A   Scattered Clouds
9:53 AM 71.1 °F - 64.0 °F 78% 29.75 in 10.0 mi SE 19.6 mph - N/A   Partly Cloudy
10:34 AM 73.9 °F - 64.9 °F 73% 29.70 in 10.0 mi SE 16.1 mph - N/A   Mostly Cloudy
10:53 AM 75.0 °F - 66.0 °F 73% 29.71 in 10.0 mi SSE 12.7 mph - N/A   Mostly Cloudy
11:53 AM 79.0 °F - 66.9 °F 66% 29.70 in 10.0 mi South 16.1 mph - N/A   Mostly Cloudy
12:53 PM 80.1 °F 82.1 °F 66.0 °F 62% 29.68 in 10.0 mi South 17.3 mph 25.3 mph N/A   Mostly Cloudy
1:07 PM 78.1 °F - 66.0 °F 66% 29.68 in 10.0 mi South 15.0 mph - N/A Thunderstorm Thunderstorm
1:22 PM 75.9 °F - 66.9 °F 74% 29.64 in 7.0 mi SSE 11.5 mph - 0.01 in Rain Light Rain
1:53 PM 75.9 °F - 68.0 °F 76% 29.69 in 4.0 mi South 17.3 mph 25.3 mph 0.06 in Rain , Thunderstorm Rain
2:13 PM 75.0 °F - 68.0 °F 79% 29.66 in 6.0 mi SSE 13.8 mph - 0.10 in Rain Light Rain
2:53 PM 75.9 °F - 69.1 °F 79% 29.66 in 10.0 mi South 10.4 mph - 0.10 in Rain Light Rain
3:53 PM 81.0 °F 84.4 °F 70.0 °F 69% 29.65 in 10.0 mi South 13.8 mph - 0.00 in   Clear
4:53 PM 82.0 °F 85.5 °F 69.1 °F 65% 29.65 in 10.0 mi SSW 13.8 mph - N/A   Partly Cloudy
5:53 PM 82.0 °F 85.5 °F 69.1 °F 65% 29.63 in 10.0 mi South 9.2 mph - N/A   Mostly Cloudy
6:19 PM 79.0 °F - 68.0 °F 69% 29.63 in 10.0 mi South 9.2 mph - N/A Thunderstorm Scattered Clouds
6:53 PM 71.1 °F - 60.1 °F 68% 29.67 in 10.0 mi WNW 17.3 mph - N/A Thunderstorm Overcast
7:00 PM 70.0 °F - 61.0 °F 73% 29.64 in 9.0 mi NW 12.7 mph - N/A Thunderstorm Overcast
7:07 PM 66.9 °F - 62.1 °F 84% 29.66 in 1.8 mi South 10.4 mph - 0.01 in Rain , Thunderstorm Rain
7:09 PM 68.0 °F - 63.0 °F 84% 29.66 in 0.8 mi South 13.8 mph - 0.03 in Rain , Thunderstorm Heavy Thunderstorms and Rain
7:27 PM 66.9 °F - 64.0 °F 90% 29.64 in 1.5 mi South 4.6 mph - 0.47 in Rain , Thunderstorm Thunderstorms and Rain
7:31 PM 66.9 °F - 63.0 °F 87% 29.63 in 3.0 mi SE 3.5 mph - 0.48 in Rain , Thunderstorm Thunderstorms and Rain
7:44 PM 66.9 °F - 64.0 °F 90% 29.63 in 10.0 mi ESE 4.6 mph - 0.48 in   Mostly Cloudy
7:53 PM 66.9 °F - 64.0 °F 90% 29.65 in 10.0 mi Calm Calm - 0.48 in   Mostly Cloudy
8:04 PM 66.9 °F - 64.0 °F 90% 29.63 in 10.0 mi SE 4.6 mph - N/A Thunderstorm Scattered Clouds
8:48 PM 66.2 °F - 62.6 °F 88% 29.64 in 10.0 mi SSE 3.5 mph - N/A   Scattered Clouds
8:53 PM 66.2 °F - 62.6 °F 88% 29.64 in 10.0 mi South 3.5 mph - N/A Rain Light Rain
9:53 PM 66.9 °F - 64.0 °F 90% 29.65 in 5.0 mi Calm Calm - 0.09 in Rain Light Rain
10:53 PM 66.9 °F - 64.0 °F 90% 29.67 in 7.0 mi SSE 6.9 mph - 0.02 in Rain Light Rain
11:53 PM 68.0 °F - 64.9 °F 90% 29.64 in 7.0 mi Calm Calm - 0.03 in Rain Light Rain